Location: Puerto Pe�asco
(31.3170°N, 113.5330°W)
Time: 21:51:54
(UTC-07:00)

Daily predictions for brighter satellites

Satellite Brightness Start Highest point End
(mag) Time Altitude Azimuth Time Altitude Azimuth Time Altitude Azimuth
Cosmos 1666 Rocket 4.2 19:57:27 10° SSW 20:01:46 61° W 20:06:04 10° N
Sich 1 3.9 20:00:12 10° SSW 20:04:24 56° W 20:08:41 10° N
Helios 1B rocket 3.7 20:02:25 10° NE 20:05:36 22° E 20:08:47 10° SSE
Resurs 01 Rocket 1.6 20:01:50 10° SSE 20:06:12 68° ENE 20:10:36 10° N
Hubble Space Telescope 1.4 20:02:54 10° W 20:06:52 44° S 20:10:49 10° ESE
Cosmos 1933 Rocket 3.7 20:06:38 10° SSE 20:10:49 51° E 20:15:02 10° NNE
Cosmos 858 Rocket 4.4 20:06:41 10° S 20:11:49 70° ESE 20:16:59 10° NNE
YAOGAN 6 4.4 20:10:38 10° ESE 20:13:03 17° ENE 20:15:27 10° NNE
Envisat 3.4 20:08:34 10° SE 20:13:22 45° ENE 20:18:12 10° N
NOSS 3-2 (C) 3.3 20:07:37 10° SSW 20:13:26 73° ESE 20:19:44 10° NNE
Cosmos 1898 Rocket 3.6 20:09:19 10° SSW 20:14:34 89° ESE 20:19:55 10° NNE
Cosmos 2112 Rocket 4.1 20:09:18 10° NNW 20:14:39 76° ENE 20:19:59 10° SSE
Meteor 2-3 Rocket 4.3 20:09:35 10° SSE 20:14:46 36° E 20:19:55 10° NNE
Milstar 3 4.2 20:02:25 10° SW 20:16:26 46° SSE 20:24:20 10° E
Cosmos 1680 Rocket 3.6 20:11:53 10° NNW 20:17:13 86° WSW 20:22:32 10° SSE
Cosmos 192 4.4 20:13:20 10° NNW 20:18:19 85° WSW 20:23:15 10° SSE
Cosmos 1862 Rocket 4.1 20:15:30 10° N 20:19:45 41° E 20:23:58 10° SSE
Cosmos 990 Rocket 4.0 20:15:34 10° S 20:20:37 59° ESE 20:25:45 10° NNE
GPS 2-04 Rocket1 3.2 20:20:17 10° W 20:23:58 53° NNW 20:27:29 10° ENE
Cosmos 1315 Rocket 3.0 20:21:29 10° S 20:25:28 78° W 20:29:31 10° N
Helios 1A 3.9 20:22:42 13° SE 20:25:51 30° ENE 20:29:32 10° N
Cosmos 1816 Rocket 4.5 20:21:01 10° S 20:27:07 63° E 20:33:10 10° NNE
ISS -4.0 20:26:07 10° SW 20:29:20 72° SE 20:32:34 10° NE
Meteor 2-10 Rocket 3.8 20:26:19 10° N 20:32:10 75° E 20:37:55 10° SSE
In-Cosmos 22 Rocket 4.4 20:26:41 10° S 20:32:24 84° W 20:38:16 10° N
Delta 2 Rocket 4.3 20:26:38 10° WSW 20:33:01 59° S 20:39:33 14° ESE
Cosmos 2082 Rocket 2.4 20:27:54 10° NNW 20:33:34 74° WSW 20:39:12 10° SSE
CENTAUR R/B 3.0 20:30:04 10° S 20:35:03 31° ESE 20:40:29 10° NE
COSMOS 2487 2.4 20:32:25 10° NNW 20:35:58 85° ENE 20:38:55 14° SSE
Cosmos 1825 4.2 20:37:59 12° E 20:37:59 12° E 20:39:11 10° ENE
Cosmos 2346 Rocket 4.4 20:33:57 10° S 20:39:52 61° E 20:45:49 10° NNE
COSMOS 2455 2.8 20:36:21 10° S 20:42:15 63° ESE 20:48:11 10° NNE
H-2A R/B 4.1 20:44:21 11° E 20:46:02 13° ENE 20:48:16 10° NE
Cosmos 1833 Rocket 3.2 20:41:14 10° NNW 20:46:45 58° WSW 20:52:14 10° S
CZ-4B DEB 4.4 20:44:11 16° SSE 20:46:57 86° ENE 20:50:30 10° N
Cosmos 1892 2.7 20:45:37 10° S 20:49:28 87° W 20:53:19 10° N
Tiangong 2 3.7 20:47:57 10° NNW 20:49:58 15° NNE 20:52:00 10° NE
Okean 1-7 4.4 20:48:33 10° NNE 20:51:58 22° ENE 20:52:44 21° E
Cosmos 1937 Rocket 4.4 20:50:03 10° SSW 20:55:01 51° WNW 21:00:01 10° N
Meteor 1-29 2.8 20:52:56 10° NNE 20:56:26 80° ESE 20:59:18 14° S
Cosmos 1703 Rocket 4.2 20:52:25 10° NNE 20:56:31 37° E 20:57:56 29° ESE
USA 186 3.9 20:55:01 10° SW 20:56:53 18° W 20:58:51 10° NW
DNEPR-1 R/B 4.3 20:52:42 10° S 20:58:10 44° ESE 21:02:47 10° NE
Cosmos 2344 4.0 20:51:38 10° S 20:58:41 38° ESE 21:05:46 10° NE
Spot 1 4.2 21:02:18 24° SSE 21:05:06 80° ENE 21:10:01 10° N
OAO 2 Rocket 3.2 21:00:30 10° WNW 21:05:34 86° SSW 21:07:50 33° ESE
Lacrosse 5 rocket 1.1 21:02:40 10° SW 21:06:13 75° NW 21:09:49 10° NE
Cosmos 1939 Rocket 3.5 21:03:15 15° S 21:06:30 56° W 21:10:35 10° NNW
Cosmos 2263 4.3 21:01:08 10° S 21:06:45 57° ESE 21:12:23 10° NNE
Cosmos 1943 Rocket 2.4 21:05:37 19° SSE 21:09:15 45° ESE 21:14:32 10° NE
CZ-4B DEB 2.3 21:09:44 72° SSE 21:09:58 86° E 21:12:54 10° N
Cosmos 1869 Rocket 3.4 21:07:55 27° S 21:10:09 68° E 21:14:28 10° NNE
NOAA 11 4.3 21:10:02 31° SE 21:12:30 56° ENE 21:17:51 10° N
Cosmos 1346 Rocket 2.8 21:12:27 10° NNW 21:16:26 76° W 21:17:59 35° S
FUSE 4.4 21:13:21 10° WSW 21:18:18 40° S 21:19:04 38° SSE
Cosmos 2221 Rocket 3.7 21:18:09 10° N 21:22:29 53° E 21:23:01 49° ESE
Cosmos 2369 Rocket 2.5 21:17:49 10° SSW 21:23:24 69° WNW 21:29:05 10° NNE
ERS-1 Rocket 2.9 21:23:22 41° SSE 21:25:08 76° ENE 21:30:11 10° N
Cosmos 1606 3.7 21:23:17 10° NNE 21:26:04 33° NE 21:26:04 33° NE
Shenzhou-11 Module 3.7 21:25:51 10° NW 21:28:24 27° NNE 21:28:24 27° NNE
Delta 168 3.7 21:26:01 10° WSW 21:29:51 41° S 21:29:51 41° S
Aurora 2 Rocket 4.2 21:28:11 10° WSW 21:31:03 19° SSW 21:31:03 19° SSW
Meteor 1-10 Rocket 4.4 21:30:25 10° N 21:36:18 62° E 21:37:43 48° SE
Meteor 1-27 Rocket 4.5 21:32:12 10° NNE 21:37:22 34° ENE 21:37:36 34° E
Cosmos 2084 4.3 21:33:51 10° N 21:37:00 33° NE 21:37:00 33° NE
Cosmos 1634 Rocket 4.2 21:34:29 10° NNW 21:40:44 69° W 21:44:16 27° S
SPOT 1/Viking Rocket 4.0 21:43:30 44° E 21:43:41 44° ENE 21:48:36 10° N
YAOGAN 11 4.4 21:44:03 56° ENE 21:44:03 56° ENE 21:48:22 10° N
Hubble Space Telescope 3.0 21:44:46 10° WSW 21:46:15 16° SW 21:46:15 16° SW
Nadezhda 4 Rocket 4.1 21:48:55 50° ESE 21:49:25 51° E 21:55:22 10° NNE
Cosmos 1782 3.1 21:47:09 10° N 21:50:37 66° NNW 21:50:37 66° NNW
Meteor 2-6 Rocket 4.2 21:46:33 10° N 21:52:32 80° E 21:53:39 60° SSE
Lacrosse 4 Rocket 3.4 21:49:23 10° N 21:52:03 20° NE 21:52:03 20° NE
USA 215 3.3 21:51:26 47° ESE 21:53:22 68° NE 21:59:53 10° NW
Cosmos 468 4.3 21:50:31 10° NNW 21:55:47 80° ENE 21:56:01 77° ESE
USA 245 4.3 21:54:32 57° S 21:55:54 89° WSW 22:02:16 10° NNW
ATLAS 5 CENTAUR R/B 3.3 21:52:56 10° N 21:58:30 34° NE 21:59:24 33° ENE
MetOp-B 4.4 21:58:54 49° SSW 22:00:04 61° WSW 22:05:23 10° NNW
Cosmos 1269 Rocket 4.2 21:58:12 10° N 22:03:03 56° NE 22:03:03 56° NE
Cosmos 1862 4.4 22:04:58 41° N 22:04:58 41° N 22:07:39 10° N
GPS 2-04 Rocket1 4.2 22:00:34 10° WNW 22:02:54 31° NW 22:02:54 31° NW
H-2A ROCKET BODY 2.7 22:01:37 10° W 22:05:18 54° S 22:05:18 54° S
ISS -0.2 22:05:14 10° NW 22:06:08 11° NNW 22:07:03 10° NNW
ARGOS 3.3 22:06:36 58° SW 22:07:20 64° WSW 22:12:40 10° NNW
Cosmos 1656 Rocket 4.0 22:13:09 51° NE 22:13:09 51° NE 22:17:19 10° NNE
Cosmos 1825 4.0 22:12:50 27° W 22:12:50 27° W 22:16:06 10° NNW
Cosmos 2279 Rocket 4.3 22:10:43 10° NNW 22:16:51 60° W 22:18:19 47° SW
SL-08 RB Rocket 4.4 22:19:13 52° WNW 22:19:13 52° WNW 22:23:21 10° NNW
Terra 3.0 22:24:15 36° NNE 22:24:15 36° NNE 22:27:20 10° N
H-2A R/B 2.3 22:24:59 67° W 22:24:59 67° W 22:30:11 10° NNW
CENTAUR R/B 3.9 22:20:06 10° WSW 22:25:27 35° NW 22:31:27 10° NNE
Tiangong 2 4.4 22:24:08 10° NW 22:24:35 13° NW 22:24:35 13° NW
SPOT 5 3.8 22:28:31 45° WSW 22:28:42 45° W 22:33:49 10° NNW
Cosmos 1943 Rocket 4.5 22:49:08 10° WSW 22:53:08 20° WNW 22:57:09 10° NNW
Milstar 3 3.3 22:51:21 10° WSW 22:58:50 54° SW 22:58:50 54° SW
Lacrosse 4 Rocket 4.4 23:27:37 10° NW 23:28:23 14° NW 23:28:23 14° NW
Cosmos 2297 Rocket 4.3 23:27:31 10° NNE 23:30:03 18° NE 23:30:03 18° NE
ATLAS 5 CENTAUR R/B 4.0 23:37:31 10° NW 23:40:57 29° WNW 23:40:57 29° WNW
